Location: Wonder Lake State Park
(41.4960°N, 73.6562°W)
Time: 16:54:22
(UTC-04:00)

Daily predictions for brighter satellites

Satellite Brightness Start Highest point End
(mag) Time Altitude Azimuth Time Altitude Azimuth Time Altitude Azimuth
Cosmos 1934 Rocket 4.0 19:30:56 10° S 19:36:55 58° E 19:42:52 10° NNE
Okean 3 Rocket 4.2 19:38:28 10° N 19:42:30 34° ENE 19:46:31 10° SE
Cosmos 1867 4.5 19:38:58 10° SSE 19:43:28 27° ESE 19:48:00 10° NE
FengYun 1-2 T 4.4 19:38:06 10° SSE 19:43:34 60° ENE 19:49:06 10° N
H-2A R/B 3.2 19:44:08 10° SE 19:47:49 42° ENE 19:51:33 10° N
Spot 2 Rocket 3.8 19:43:35 10° SE 19:48:26 46° ENE 19:53:20 10° N
Tiangong 1 2.3 19:48:44 10° W 19:51:25 32° SSW 19:54:05 10° SE
Cosmos 1707 4.3 19:49:04 10° NNW 19:52:44 40° W 19:56:22 10° SSW
Abrixas 2.7 19:50:32 10° NW 19:53:19 50° NNE 19:55:43 13° E
Meteor 1-24 Rocket 3.8 19:48:26 10° N 19:53:57 90° E 19:59:40 10° S
Cosmos 2082 Rocket 3.0 19:49:03 10° N 19:54:10 33° ENE 19:59:14 10° ESE
Cosmos 1812 Rocket 3.8 19:51:02 10° S 19:55:26 78° W 19:59:51 10° N
Cosmos 1076 Rocket 4.3 19:52:34 10° NNE 19:56:21 30° ENE 20:00:05 10° SE
Helios 1B rocket 3.6 19:53:28 10° NE 19:56:42 22° E 19:59:55 10° SSE
Cosmos 1758 4.0 19:53:08 10° SSE 19:56:43 33° E 20:00:19 10° NNE
Lacrosse 5 2.0 19:52:01 10° SW 19:57:06 78° NW 20:02:12 10° NE
Cosmos 990 Rocket 4.3 19:52:05 10° SSW 19:57:19 75° WNW 20:02:35 10° NNE
FREGAT/IRIS 4.0 19:58:29 10° S 20:01:25 43° W 20:04:22 10° NNW
Cosmos 1821 Rocket 4.4 19:56:04 10° SSW 20:02:25 71° W 20:08:47 10° N
Lacrosse 4 Rocket 3.7 20:01:13 10° WSW 20:04:40 26° NW 20:08:09 10° N
Cosmos 1953 2.8 20:00:54 10° SSE 20:04:40 38° E 20:08:27 10° NNE
Envisat 4.0 20:02:47 11° ESE 20:06:38 26° ENE 20:10:49 10° N
GP-B 3.9 20:04:26 10° SE 20:08:18 30° E 20:12:11 10° NNE
USA 186 2.1 20:08:21 22° E 20:08:44 23° ENE 20:10:36 10° NNE
Helios 1A 3.6 20:06:48 10° SE 20:10:37 36° ENE 20:14:29 10° N
Cosmos 1939 Rocket 4.4 20:09:38 16° E 20:11:18 20° ENE 20:14:21 10° NNE
Cosmos 1766 Rocket 4.3 20:07:42 10° N 20:11:47 33° ENE 20:15:22 12° SE
CZ-3 Stage 3 4.4 19:17:27 10° WSW 20:13:08 55° S 20:20:19 16° ESE
Cosmos 1271 Rocket 3.9 20:10:47 10° SE 20:13:59 23° E 20:17:12 10° NE
Resurs 01 Rocket 1.6 20:09:57 10° SSE 20:14:22 87° E 20:18:50 10° NNW
Cosmos 1125 Rocket 3.6 20:09:36 10° S 20:14:37 53° ESE 20:19:42 10° NNE
Cosmos 1766 4.1 20:12:29 10° SSW 20:16:17 54° W 20:20:07 10° N
Cosmos 1048 Rocket 4.2 20:12:59 10° N 20:17:58 49° ENE 20:22:08 14° SE
Geosat 4.0 20:15:07 10° NE 20:20:04 55° ESE 20:24:59 10° S
Cosmos 1605 Rocket 4.0 20:14:13 10° S 20:20:29 88° E 20:26:53 10° N
Cosmos 2100 Rocket 4.4 20:16:50 10° SSE 20:22:37 39° E 20:28:28 10° NNE
Cosmos-2242 3.6 20:18:53 10° SSE 20:22:42 33° E 20:26:32 10° NNE
ERS-1 Rocket 4.3 20:23:22 19° E 20:24:55 22° ENE 20:28:42 10° NNE
Lacrosse 5 rocket 2.6 20:21:46 10° NNW 20:25:07 26° NNE 20:26:41 20° ENE
Fregat R/B Cluster 11 4.3 20:20:42 10° SSW 20:27:18 68° ESE 20:30:43 10° NE
SeaSat 1 3.3 20:23:57 10° S 20:28:43 50° WSW 20:33:31 10° NW
Cosmos 1674 2.9 20:26:19 10° N 20:29:59 46° E 20:31:54 24° SE
SAR-Lupe-4 3.4 20:31:34 17° SSE 20:34:16 73° ENE 20:37:50 10° N
YAOGAN 6 4.4 20:36:25 18° NE 20:36:25 18° NE 20:38:26 10° NNE
Cosmos 2344 4.4 20:35:16 10° SW 20:42:47 56° NW 20:51:27 10° NNE
CZ-2D R/B 3.9 20:39:20 10° S 20:43:08 56° W 20:46:59 10° NNW
Cosmos 1743 Rocket 4.2 20:39:15 10° N 20:43:18 34° ENE 20:43:51 33° E
Cosmos 1802 Rocket 4.2 20:38:00 10° SSE 20:43:45 45° E 20:49:33 10° NNE
Meteor 1-21 Rocket 4.3 20:38:18 10° N 20:44:10 89° E 20:50:05 10° S
BREEZE-M DEB (TANK) 3.8 20:42:25 10° NW 20:44:19 21° NNE 20:44:40 20° NNE
Meteor 1-29 2.9 20:42:27 10° NNE 20:45:53 64° E 20:48:19 18° S
CZ-3B DEB 3.7 20:37:29 10° WSW 20:47:17 45° NW 20:51:57 10° NE
Cosmos 1805 4.4 20:44:34 10° SSW 20:48:18 44° WNW 20:52:04 10° N
Cosmos 1818 3.9 20:45:27 10° NW 20:50:51 65° WSW 20:54:41 19° SSE
GPS 2-05 Rocket1 4.2 20:48:39 10° SW 20:51:23 27° S 20:51:23 27° S
COSMOS 2487 2.4 20:48:33 10° NNW 20:52:08 82° WSW 20:53:15 41° S
Cosmos 2251 Rocket 4.3 20:48:05 10° N 20:52:51 32° ENE 20:53:40 31° E
SAR-Lupe-1 4.2 20:51:15 26° S 20:53:07 74° WSW 20:56:43 10° NNW
Cosmos 1269 Rocket 4.2 20:51:46 10° NNW 20:57:03 74° WSW 21:00:49 19° S
Cosmos 2061 Rocket 4.0 20:50:54 10° S 20:57:11 64° E 21:03:33 10° NNE
Meteor 1-4 Rocket 4.0 20:56:31 10° SW 20:59:44 36° WNW 21:03:00 10° N
Timation 2 Rocket 3.9 20:55:50 10° NNW 21:02:12 88° ENE 21:05:25 30° SSE
Cosmos 1833 Rocket 2.7 20:56:56 10° NNW 21:02:35 82° WSW 21:05:39 28° SSE
Cosmos 1470 2.8 21:00:37 12° S 21:04:15 83° W 21:08:15 10° N
Cosmos 1408 Rocket 3.9 21:00:15 10° NNW 21:04:42 66° W 21:07:46 19° S
Cosmos 2278 Rocket 4.2 21:03:38 10° WSW 21:08:33 30° NW 21:13:31 10° N
Cosmos 1340 Rocket 2.7 21:07:40 10° N 21:11:44 85° WSW 21:12:09 70° S
CZ-4B DEB 3.6 21:12:04 45° WSW 21:12:09 45° W 21:15:09 10° NNW
Cosmos 372 Rocket 4.4 21:07:16 10° SSW 21:12:18 61° WNW 21:17:26 10° NNE
Cosmos 1733 3.5 21:10:59 23° SSW 21:13:18 66° W 21:17:11 10° N
Cosmos 1459 Rocket 3.9 21:07:53 10° S 21:14:10 88° W 21:20:23 10° N
USA 215 3.1 21:10:21 10° NE 21:16:54 72° SE 21:23:23 10° SW
Cosmos 1842 Rocket 4.1 21:18:20 44° NE 21:18:20 44° NE 21:21:32 10° NNE
ATLAS 5 CENTAUR R/B 1.9 21:15:00 10° SW 21:19:40 75° NW 21:24:48 10° NNE
Cosmos 2173 Rocket 4.0 21:13:45 10° S 21:19:55 81° W 21:26:14 10° N
ISS -1.6 21:17:20 10° SW 21:18:25 19° SW 21:18:25 19° SW
Cosmos 2151 4.1 21:20:38 10° N 21:23:14 32° NNE 21:23:14 32° NNE
Helios 1B rocket 4.3 21:28:24 10° N 21:32:01 30° WNW 21:35:37 10° SW
Meteor 1-11 4.0 21:30:58 10° N 21:36:34 74° E 21:36:37 73° E
Cosmos 494 Rocket 3.9 21:32:30 10° NNW 21:37:19 74° NNE 21:37:19 74° NNE
Cosmos 2082 Rocket 3.4 21:33:05 10° NW 21:38:16 37° WSW 21:41:10 22° SSW
Lacrosse 5 4.1 21:36:54 10° WNW 21:40:48 22° NNW 21:44:42 10° NNE
SPOT 5 3.4 21:45:02 54° NNE 21:45:02 54° NNE 21:49:27 10° N
Envisat 4.2 21:42:59 23° SSW 21:45:27 38° W 21:50:11 10° NNW
Cosmos 1939 Rocket 4.3 21:45:32 33° WSW 21:46:00 34° W 21:49:48 10° NNW
Meteor 1-16 Rocket 4.3 21:44:17 43° SSW 21:46:18 79° W 21:52:16 10° N
USA 267 3.8 21:48:09 41° ENE 21:49:18 45° NNE 21:55:27 10° NW
MetOp-A 4.1 21:50:03 74° N 21:50:03 74° N 21:54:56 10° NNW
ARGOS 3.6 21:51:33 50° NNE 21:51:33 50° NNE 21:55:43 10° N
H-2A R/B 3.4 21:52:51 30° NNE 21:52:51 30° NNE 21:55:57 10° N
Cosmos 2016 Rocket 4.3 21:47:02 18° SSW 21:51:44 64° W 21:57:52 10° N
Cosmos 1725 Rocket 4.0 21:59:08 70° SW 21:59:51 80° W 22:06:05 10° N
Terra 4.1 22:04:46 15° NNE 22:04:46 15° NNE 22:05:52 10° N
ERS-1 Rocket 3.7 22:03:21 47° W 22:03:22 47° W 22:08:14 10° NNW
Lacrosse 5 rocket 3.5 22:00:50 10° WNW 22:02:25 22° WNW 22:02:25 22° WNW
Tsikada Rocket 4.2 22:11:20 10° NNW 22:17:27 63° W 22:17:28 63° W
Cosmos 2369 Rocket 4.4 22:34:54 16° NNE 22:34:54 16° NNE 22:35:59 10° NNE
USA 215 4.3 22:53:36 10° NE 22:59:37 41° NNW 23:05:37 10° W
